Regional Weather Roundup
Issued by NWS

Home | Current Version | Previous Version | Graphics & Text | Print | Product List | Glossary On
Versions: 1 2 3 4 5 6 7 8 9 10 11 12 13 14 15 16 17 18 19 20 21 22 23 24 25 26 27 28 29 30 31 32 33 34 35 36 37 38 39 40 41 42 43 44 45 46 47 48 49 50
000
ASUS43 KOAX 291710
RWRNE

WEATHER ROUNDUP FOR NEBRASKA
NATIONAL WEATHER SERVICE OMAHA NE
1200 PM CDT FRI MAY 29 2015

NOTES: SATELLITE DATA IS BEING USED TO AUGMENT CLOUD COVER ABOVE
       12000 FEET.
       "FAIR" INDICATES FEW OR NO CLOUDS BELOW 12,000 FEET WITH NO
       SIGNIFICANT WEATHER AND/OR OBSTRUCTIONS TO VISIBILITY.

  * THESE STATIONS DO NOT REPORT WEATHER SUCH AS RAIN...SNOW OR FOG.

NEZ001>004-019>022-054>056-291800-
NEBRASKA PANHANDLE

CITY           SKY/WX    TMP DP  RH WIND       PRES   REMARKS
SCOTTSBLUFF    RAIN      53  52  96 NW6       30.18R FOG
ALLIANCE       HVY RAIN  52  51  97 NW15G23   30.14R FOG
CHADRON        LGT RAIN  50  47  89 N17G25    30.20R FOG
KIMBALL          N/A    N/A N/A N/A MISG        N/A
SIDNEY         CLOUDY    57  51  80 NW14      30.16S
$$

NEZ057>060-069>072-079>082-291800-
SOUTHWEST NEBRASKA

CITY           SKY/WX    TMP DP  RH WIND       PRES   REMARKS
NORTH PLATTE   PTSUNNY   67  55  65 N13G20    30.05R
IMPERIAL       MOSUNNY   68  54  60 NW17      30.09R
LEXINGTON      MOSUNNY   71  59  66 NW14      30.01R
MCCOOK         PTSUNNY   72  55  55 NW14      30.04R
OGALLALA       PTSUNNY   65  54  67 N17       30.10R
$$

NEZ005>010-023>029-035>040-094-291800-
NORTH CENTRAL NEBRASKA

CITY           SKY/WX    TMP DP  RH WIND       PRES   REMARKS
VALENTINE      CLOUDY    54  51  90 N20G31    30.10R
AINSWORTH      LGT RAIN  57  56  97 NW20G28   30.07R
BROKEN BOW     PTSUNNY   70  57  63 N16       30.00F
O`NEILL        CLOUDY    65  62  88 NW15      29.97S
ORD            PTSUNNY   70  59  68 NW18G24   29.96F
THEDFORD       CLOUDY    62  56  80 N16G26    30.07R
$$

NEZ041-046>049-061>064-073>077-083>087-291800-
SOUTH CENTRAL NEBRASKA

CITY           SKY/WX    TMP DP  RH WIND       PRES   REMARKS
GRAND ISLAND   MOSUNNY   72  58  61 N12       29.97R
AURORA         PTSUNNY   71  61  69 NW9       29.96S
HASTINGS       MOSUNNY   71  60  68 N10       29.97S
HEBRON         CLOUDY    71  57  61 CALM      29.96R
HOLDREGE       MOSUNNY   73  52  47 N10G17    29.99S
KEARNEY *      MOSUNNY   73  57  56 NW14      29.98S
YORK           CLOUDY    70  61  73 NW8       29.95S
$$

NEZ011>018-030>034-042>045-291800-
NORTHEAST NEBRASKA

CITY           SKY/WX    TMP DP  RH WIND       PRES   REMARKS
NORFOLK        PTSUNNY   72  62  71 VRB5      29.92S
ALBION         CLOUDY    70  59  69 NW10      29.94S
BLAIR          CLOUDY    72  60  67 S10       29.92S
COLUMBUS *     PTSUNNY   70  59  68 NW8       29.95R
FREMONT        CLOUDY    73  61  65 SW5       29.93R
TEKAMAH        CLOUDY    74  65  73 S8        29.90S
WAYNE          CLOUDY    72  61  69 W6        29.91S
$$

NEZ050>053-065>068-078-088>093-291800-
SOUTHEAST NEBRASKA

CITY           SKY/WX    TMP DP  RH WIND       PRES   REMARKS
LINCOLN        CLOUDY    72  61  68 S5        29.95R
OMAHA EPPLEY   CLOUDY    73  61  65 S12       29.92S
BEATRICE       CLOUDY    70  60  68 SW7       29.96S
FALLS CITY     CLOUDY    70  65  84 S9        29.96S
NEBRASKA CITY  CLOUDY    71  64  79 SW10      29.96R
PLATTSMOUTH    CLOUDY    71  62  74 SW9       29.94S
$$

NEZ044-045-051>053-067-291800-
OMAHA AREA

CITY           SKY/WX    TMP DP  RH WIND       PRES   REMARKS
OMAHA EPPLEY   CLOUDY    73  61  65 S12       29.92S
BLAIR          CLOUDY    72  60  67 S10       29.92S
FREMONT        CLOUDY    73  61  65 SW5       29.93R
MILLARD        CLOUDY    72  60  66 SW6       29.93R
OFFUTT AFB     CLOUDY    74  60  63 SW12      29.92S
PLATTSMOUTH    CLOUDY    71  62  74 SW9       29.94S
WAHOO          FAIR      73  60  63 S3        29.93R
$$


USA.gov is the U.S. government's official web portal to all federal, state and local government web resources and services.